Ottumwa, IA

2:46 PM CDT on September 19, 2017 (GMT -0500)
Ottumwa Industrial

Weather History for KOTM - July, 2013

Change the Weather History Date:

Wednesday, July 3, 2013

  Actual Average Record
Temperature  
Mean Temperature 68 °F 75 °F  
Max Temperature 80 °F 85 °F 101 °F (1911)
Min Temperature 56 °F 64 °F 49 °F (1924)
Degree Days  
Heating Degree Days 0 0  
Month to date heating degree days 0 0  
Since 1 June heating degree days 26 21  
Since 1 July heating degree days 0 0  
Cooling Degree Days 3 10  
Month to date cooling degree days 7 30  
Year to date cooling degree days 282 295  
Since 1 June cooling degree days 205 231  
Growing Degree Days 18 (Base 50)    
Moisture  
Dew Point 58 °F    
Average Humidity 73    
Maximum Humidity 97    
Minimum Humidity 48    
Precipitation  
Precipitation 0.00 in 0.16 in 2.25 in (1896)
Month to date precipitation T 0.48  
Year to date precipitation 26.14 18.10  
Sea Level Pressure  
Sea Level Pressure 30.03 in    
Wind  
Wind Speed 4 mph (ESE)    
Max Wind Speed 13 mph    
Max Gust Speed 18 mph    
Visibility 10 miles    
Events      
T = Trace of Precipitation, MM = Missing Value Source: NWS Daily Summary

Daily Weather History Graph

Daily Weather History Graph

Search for Another Location

Airport or City:

Trip Planner

Search our weather history database for the weather conditions in past years. The results will help you decide how hot, cold, wet, or windy it might be!

Date:

Astronomy

Jul. 03, 2013 Rise Set
Actual Time 5:42 AM CDT 8:45 PM CDT
Civil Twilight 5:08 AM CDT 9:19 PM CDT
Nautical Twilight 4:26 AM CDT 10:01 PM CDT
Astronomical Twilight 3:35 AM CDT 10:51 PM CDT
Moon 2:21 AM CDT (7/3) 4:55 PM CDT (7/3)
Length of Visible Light 16h 10m
Length of Day
15h 03m
Waning Crescent, 18% of the Moon is Illuminated
Jul 3
Waning Crescent
Jul 8
New
Jul 15
First Quarter
Jul 22
Full
Jul 29
Last Quarter

Hourly Weather History & Observations

Time (CDT) Temp. Dew Point Humidity Pressure Visibility Wind Dir Wind Speed Gust Speed Precip Events Conditions
12:53 AM 62.1 °F 57.0 °F 84% 30.04 in 10.0 mi Calm Calm - N/A   Clear
1:53 AM 60.1 °F 57.0 °F 90% 30.04 in 10.0 mi Calm Calm - N/A   Clear
2:53 AM 61.0 °F 55.9 °F 83% 30.03 in 10.0 mi Calm Calm - N/A   Clear
3:53 AM 60.1 °F 55.9 °F 86% 30.02 in 10.0 mi Calm Calm - N/A   Clear
4:53 AM 57.9 °F 55.9 °F 93% 30.02 in 10.0 mi Calm Calm - N/A   Clear
5:53 AM 57.0 °F 54.0 °F 89% 30.04 in 10.0 mi Calm Calm - N/A   Clear
6:53 AM 60.1 °F 59.0 °F 96% 30.05 in 3.0 mi Calm Calm - N/A   Clear
7:53 AM 63.0 °F 59.0 °F 87% 30.05 in 9.0 mi Calm Calm - N/A   Clear
8:53 AM 66.0 °F 59.0 °F 78% 30.07 in 10.0 mi East 3.5 mph - N/A   Clear
9:53 AM 69.1 °F 60.1 °F 73% 30.06 in 10.0 mi SE 3.5 mph - N/A   Clear
10:53 AM 71.1 °F 60.1 °F 68% 30.06 in 10.0 mi East 4.6 mph - N/A   Clear
11:53 AM 73.9 °F 57.9 °F 57% 30.06 in 10.0 mi ENE 6.9 mph - N/A   Clear
12:53 PM 78.1 °F 57.9 °F 50% 30.04 in 10.0 mi Variable 4.6 mph - N/A   Clear
1:53 PM 75.9 °F 55.9 °F 50% 30.03 in 10.0 mi Variable 3.5 mph - N/A   Clear
2:53 PM 79.0 °F 61.0 °F 54% 30.02 in 10.0 mi SE 10.4 mph 16.1 mph N/A   Partly Cloudy
3:53 PM 79.0 °F 59.0 °F 50% 30.01 in 10.0 mi ENE 8.1 mph - N/A   Scattered Clouds
4:53 PM 79.0 °F 57.9 °F 48% 30.00 in 10.0 mi ESE 9.2 mph - N/A   Partly Cloudy
5:53 PM 75.9 °F 60.1 °F 58% 29.99 in 10.0 mi South 4.6 mph - N/A   Mostly Cloudy
6:53 PM 75.9 °F 60.1 °F 58% 29.99 in 10.0 mi SE 5.8 mph - N/A   Clear
7:53 PM 73.9 °F 59.0 °F 59% 30.00 in 10.0 mi ESE 6.9 mph - N/A   Clear
8:53 PM 68.0 °F 59.0 °F 73% 30.01 in 10.0 mi ESE 6.9 mph - N/A   Clear
9:53 PM 68.0 °F 59.0 °F 73% 30.02 in 10.0 mi ESE 5.8 mph - N/A   Clear
10:53 PM 64.9 °F 59.0 °F 81% 30.03 in 10.0 mi ESE 6.9 mph - N/A   Clear
11:53 PM 64.0 °F 55.9 °F 75% 30.03 in 10.0 mi ESE 5.8 mph - N/A   Clear